This is the latest recevied weather packets stored in our database for station/object VK4CWL-13. If no packets are shown the sender has not sent any weather packets the latest 10 day(s).
| Time | Temp. | Humidity | Pressure | Rain* | Wind** | Luminosity | Snow |
|---|---|---|---|---|---|---|---|
| 1788147970 | 24.44° C | 34% | 1023.9 hPa | 0 mm | - | - | - |
| 1788147798 | 24.44° C | 35% | 1023.9 hPa | 0 mm | - | - | - |
| 1788147496 | 24.44° C | 35% | 1024 hPa | 0 mm | - | - | - |
| 1788147193 | 24.44° C | 36% | 1024.2 hPa | 0 mm | - | - | - |
| 1788147010 | 24.44° C | 36% | 1024.2 hPa | 0 mm | - | - | - |
| 1788146709 | 24.44° C | 36% | 1024.3 hPa | 0 mm | - | - | - |
| 1788146407 | 24.44° C | 35% | 1024.4 hPa | 0 mm | - | - | - |
| 1788146223 | 25° C | 36% | 1024.4 hPa | 0 mm | - | - | - |
| 1788145921 | 24.44° C | 35% | 1024.5 hPa | 0 mm | - | - | - |
| 1788145680 | 24.44° C | 35% | 1024.4 hPa | 0 mm | - | - | - |
| 1788145597 | 24.44° C | 35% | 1024.5 hPa | 0 mm | - | - | - |
| 1788145294 | 24.44° C | 34% | 1024.5 hPa | 0 mm | - | - | - |
| 1788144993 | 23.89° C | 36% | 1024.7 hPa | 0 mm | - | - | - |
| 1788144689 | 23.89° C | 36% | 1024.7 hPa | 0 mm | - | - | - |
| 1788144547 | 23.33° C | 38% | 1024.9 hPa | 0 mm | - | - | - |
| 1788144286 | 23.33° C | 39% | 1025 hPa | 0 mm | - | - | - |
| 1788144063 | 23.33° C | 39% | 1025.1 hPa | 0 mm | - | - | - |
| 1788143762 | 23.33° C | 40% | 1025.1 hPa | 0 mm | - | - | - |
| 1788143461 | 23.33° C | 39% | 1025.1 hPa | 0 mm | - | - | - |
| 1788143207 | 23.33° C | 39% | 1025.1 hPa | 0 mm | - | - | - |
| 1788142905 | 23.33° C | 42% | 1025.4 hPa | 0 mm | - | - | - |
| 1788142603 | 23.33° C | 41% | 1025.6 hPa | 0 mm | - | - | - |
| 1788142299 | 23.33° C | 40% | 1025.5 hPa | 0 mm | - | - | - |
| 1788142240 | 23.33° C | 40% | 1025.5 hPa | 0 mm | - | - | - |
| 1788141936 | 23.89° C | 41% | 1025.5 hPa | 0 mm | - | - | - |
* Rain since midnight (hover to see other rain measurements)
** Current wind speed in m/s (hover to see current wind gust speed)